Погода в Поти

Грузия     42°08′35″N   41°40′30″E
темп.,
°C
ветер,
м/с
пор.,
м/с
влажн.,
%
обл.,
%
осадки,
мм/ч
давл.,
гПа
погр.,
м
18 августа, чт
чт1801:00+24ююв119618 0.3 100924
04:00+23вюв239815 0.6 100975
07:00+22в249822 0.0 100994
10:00+28юв22690 0.0 1009614
13:00+30зюз53580 0.0 10081149
16:00+29зюз55641 0.0 1008943
19:00+27зюз34754 0.0 1008763
22:00+24ююз23881 0.0 100969
19 августа, пт
пт1901:00+23юв229114 0.3 100941
04:00+22юв249595 0.7 1008102
07:00+22вюв23955 0.1 100881
10:00+28юв2266100 0.1 1008789
13:00+30юз5357100 0.0 10081285
16:00+29зюз556095 0.0 1007908
19:00+27юз3473100 0.0 1008785
22:00+23вюв1189100 0.1 100924
20 августа, сб
сб2001:00+22ююв2290100 0.0 100940
04:00+22ююв1292100 0.0 100830
07:00+21в2294100 0.0 100958
10:00+25ююв2374100 0.0 1009431
13:00+28юз5463100 0.0 1008702
16:00+29зюз5563100 0.0 1008902
19:00+27юз3472100 0.0 1008664
22:00+24зюз128791 0.0 100951
21 августа, вс
вс2101:00+22ююв119199 0.0 100823
04:00+22ю2393100 0.0 100785
07:00+22ююв349325 0.0 1007165
10:00+29юв49404 0.0 10071188
13:00+32ююз56434 0.0 1005990
16:00+29зюз656095 0.0 1004518
19:00+27юз557497 0.0 1004401
22:00+25ююз468268 0.0 1005203
22 августа, пн
пн2201:00+23ю36905 0.0 1004165
04:00+28вюв11193098 0.0 10031175
07:00+27вюв111829100 0.0 1004922
10:00+31вюв11172044 0.0 10041020
13:00+35юв5920100 0.0 10031360
16:00+29зюз6665100 0.0 1004536
19:00+27юз23760 0.0 1006373
22:00+23юв009217 0.0 100716